Home > Weather > Cheyenne > Past weeks

Flag for USA Weather for the Past 2 Weeks in Cheyenne, Wyoming, USA

Now
39 °F

Clear.


Feels Like: 32 °F
Forecast: 39 / 68 °F
Wind: 10 mph from Northwest

Location: Cheyenne Airport

Current Time: May 4, 2016 at 6:40:31 AM

Latest Report: May 4, 2016 at 5:53 AM


Visibility: 10 mi

Pressure: 30.13 "Hg (23.97 "Hg at 1855m altitude)

Humidity: 73%

Dew Point: 31 °F

Location of CheyenneLocation

Historic Weather in Cheyenne — Graph

°F

Cheyenne Temperature Yesterday

Maximum temperature yesterday: 62 °F (at 4:53 PM)
Minimum temperature yesterday: 40 °F (at 3:53 AM)
Average temperature yesterday: 51 °F

High & Low Weather Summary for the Past Weeks

 TemperatureHumidityPressure
High72 °F (Apr 22, 3:53 PM)100% (Apr 29, 6:53 AM)30.38 "Hg (Apr 29, 6:53 AM)
Low25 °F (Apr 27, 3:53 AM)15% (May 2, 12:53 PM)29.43 "Hg (Apr 23, 4:53 PM)
Average41 °F68%29.94 "Hg
* Reported Apr 19 4:53 AM — May 4 4:53 AM, Cheyenne, Weather by CustomWeather, © 2016

Note: Actual official high and low records may vary slightly from our data, if they occured in-between our weather recording intervals... More about our weather records

Advertising

Cheyenne Weather History for the Previous 24 Hours

Scroll right to see more
 ConditionsComfort  
Time TempWeatherWind HumidityBarometerVisibility
4:53 AM
Wed, May 4
40 °FClear.12 mph73%30.12 "Hg10 mi
3:53 AM40 °FClear.9 mph73%30.13 "Hg10 mi
2:53 AM40 °FClear.9 mph77%30.14 "Hg10 mi
1:53 AM41 °FClear.12 mph74%30.15 "Hg10 mi
12:53 AM42 °FClear.9 mph71%30.15 "Hg10 mi
11:53 PM
Tue, May 3
43 °FClear.12 mph71%30.15 "Hg10 mi
10:53 PM45 °FClear.7 mph65%30.15 "Hg10 mi
9:53 PM46 °FClear.8 mph66%30.14 "Hg10 mi
8:53 PM54 °FSunny.5 mph47%30.10 "Hg10 mi
7:53 PM57 °FSunny.7 mph41%30.08 "Hg10 mi
6:53 PM61 °FSunny.13 mph32%30.08 "Hg10 mi
5:53 PM62 °FSunny.14 mph30%30.09 "Hg10 mi
4:53 PM62 °FPassing clouds.15 mph32%30.09 "Hg10 mi
3:53 PM61 °FPassing clouds.16 mph34%30.10 "Hg10 mi
2:53 PM60 °FPassing clouds.16 mph35%30.11 "Hg10 mi
1:53 PM59 °FPassing clouds.20 mph36%30.10 "Hg10 mi
12:53 PM58 °FSunny.18 mph38%30.11 "Hg10 mi
11:53 AM57 °FPassing clouds.17 mph37%30.12 "Hg10 mi
10:53 AM55 °FPassing clouds.N/A40%30.11 "HgN/A
9:53 AM53 °FPassing clouds.18 mph43%30.11 "HgN/A
8:53 AM51 °FPartly sunny.13 mph46%30.11 "Hg10 mi
7:53 AM48 °FPartly sunny.14 mph50%30.10 "Hg10 mi
6:53 AM43 °FPartly sunny.10 mph58%30.08 "Hg10 mi
Weather by CustomWeather, © 2016

See weather overviewHow to use our weather pages